Volver al catálogo

FENGYUN 1C DEB

ActivoSSO
NORAD 30737·DEBRIS·🇨🇳 China

Lanzado May 10, 1999 desde Taiyuan Satellite Launch Center

Loading…

Próximos Pases (próximas 24 horas)

TLE

ActualizadoSource: Space-Track

Época: Sep 14, 2026, 10:23 UTC

1 30737U 99025ASX 26257.43293801  .00000337  00000-0  18301-3 0  9996
2 30737  98.6080 236.1642 0024594  59.5349  91.6993 14.18572298  9379

Sigue FENGYUN 1C DEB en tiempo real con AllMySat

Download on the App Store